{"data":{"norad_id":62651,"intl_designator":"2025-009AU","name":"FLOCK 4G-21","alt_names":[],"object_type":"PAYLOAD","status":"ACTIVE","operator":null,"country":"US","launch_date":"2025-01-14","launch_site_code":"AFWTR","launch_vehicle":null,"mission":null,"orbit_class":"UNKNOWN","rcs_meters":null,"size_class":null,"mass_kg":null,"dimensions":null,"purposes":["earth_obs"],"wikipedia_slug":null,"has_3d_model":false,"image_url":null,"decayed_at":null,"tle_current":{"epoch":"2026-05-25T04:57:32.550336Z","epoch_age_seconds":57971,"freshness":"FRESH","line1":"1 62651U 25009AU  26145.20662674  .00011654  00000+0  40210-3 0  9993","line2":"2 62651  97.3992 227.7645 0002548  68.3081 291.8431 15.30127799 75441","mean_motion":15.30127799,"eccentricity":0.0002548,"inclination_deg":97.3992,"raan_deg":227.7645,"arg_perigee_deg":68.3081,"mean_anomaly_deg":291.8431,"bstar":0.0004021,"rev_number":7544,"period_min":94.109786185252,"perigee_km":473.68436802892,"apogee_km":477.17694610696,"semimajor_km":6853.5676570679,"source":"CELESTRAK","updated_at":"2026-05-25T13:38:13.340183Z"}}}